リニア彗星

P/2008 WZ96 ( LINEAR )

English version
Home page
Updated on March 17, 2010

---------------------------------------------------------------------

・ プロフィール

発見日 2008年11月30日、12月28日
発見光度 18.3等、18.1等
発見者 Lincoln Laboratory Near-Earth Asteroid Research project

・ 写真集

・ 軌道要素

The following orbital elements are taken from MPC 66204:

Epoch 2009 Jan. 9.0 TT = JDT 2454840.5
T 2009 Jan. 23.9108 TT                                  MPC
q   1.646287             (2000.0)            P               Q
n   0.1601741      Peri.  337.6208      +0.7990432      -0.5922187
a   3.357952       Node    59.1104      +0.5683786      +0.6875507
e   0.509735       Incl.    6.9578      +0.1961523      +0.4201797
P   6.15
From 134 observations 2008 Nov. 30-2009 Apr. 13, mean residual 0".7.

・ 光度変化

        m1 = 14.5 + 5 logΔ + 10.0 log r

---------------------------------------------------------------------

軌道要素はMPCのEphemerides and Orbital Elementsに掲載されたものです。
光度グラフはComet for Windowsで作成したものです。

---------------------------------------------------------------------

Copyright(C) Seiichi Yoshida (comet@aerith.net). All rights reserved.